Wind_Speed
22 22 27 27 29 26 23 26 27 24 26 32 26 23 28 33 32 32 30 28 26 23 21 18 16 14 14 15 16 18 19 22 21 27 27 23 21 25 26 17 16 17 19 24
20 29 25 21 25 27 22 24 30 20 25 31 24 21 26 31 34 33 32 29 26 22 21 19 19 19 19 19 20 20 19 18 20 18 19 24 22 17 17 18 19 22 26 26
25 15 24 26 24 28 32 28 28 24 18 21 19 18 24 31 33 35 33 30 27 25 24 24 22 21 21 20 19 18 16 15 15 16 16 19 19 19 20 21 24 26 19 17
20 24 26 22 30 26 35 32 23 25 24 24 31 17 29 32 35 38 37 34 30 28 29 27 25 22 20 20 18 17 16 15 15 14 15 16 17 17 16 15 15 15 13 11
14 14 24 30 29 26 30 26 29 26 27 20 19 19 35 31 41 44 43 36 32 32 30 27 25 21 21 21 19 17 15 14 13 13 13 13 12 13 13 13 11 9 9 8
21 18 17 22 28 25 21 21 24 25 25 22 34 34 39 40 42 38 41 38 36 36 34 31 25 22 21 19 18 17 15 14 13 13 13 14 14 12 10 9 9 8 7 7
21 26 22 22 16 24 20 26 18 16 18 22 39 36 35 35 34 38 35 38 38 39 38 31 24 21 21 19 18 17 16 16 16 15 15 13 11 10 10 10 8 6 5 6
16 17 25 24 29 23 33 35 28 22 21 25 33 37 46 37 19 17 29 34 41 43 40 31 25 26 23 22 21 20 19 19 18 15 14 13 12 11 10 8 6 6 6 7
12 15 13 17 24 26 27 39 42 35 33 26 27 32 27 30 33 34 29 38 42 45 40 32 31 24 24 23 22 21 20 19 18 16 15 13 12 11 10 9 8 8 7 8
21 24 16 11 17 27 33 34 37 38 21 25 30 43 37 32 29 32 42 38 31 37 41 36 32 27 23 22 21 21 20 20 18 17 16 15 14 12 11 10 9 9 8 8
29 26 19 16 25 28 30 33 34 37 34 19 20 36 38 34 28 36 39 47 44 44 30 40 35 32 27 22 20 21 20 19 19 18 17 16 14 13 12 11 10 9 8 8
14 16 30 30 19 25 29 35 37 29 36 40 33 28 15 25 33 36 37 35 35 40 35 37 38 37 31 23 20 21 20 20 19 19 17 17 16 14 13 11 10 9 8 8
7 14 27 21 27 25 29 32 34 40 35 36 25 36 26 17 20 19 32 35 35 40 43 42 41 40 33 25 22 22 21 20 20 19 19 17 16 15 13 11 10 8 8 8
8 15 20 25 26 28 27 29 34 35 36 39 38 35 29 25 23 31 23 25 34 41 48 45 42 45 35 29 23 22 22 21 20 20 18 18 16 14 12 11 9 8 8 9
12 17 21 26 28 25 22 29 32 35 43 40 44 41 32 27 23 21 21 21 31 37 49 50 47 45 39 33 27 25 23 22 22 21 20 18 16 14 12 10 9 8 8 9
17 11 15 24 28 27 30 31 26 36 41 40 44 38 27 24 26 27 28 23 31 31 41 51 51 47 42 36 29 25 23 23 23 21 19 18 16 14 12 11 9 9 9 10
23 17 12 21 19 22 33 40 38 37 33 38 41 39 34 24 29 28 25 23 20 21 39 45 52 49 46 37 30 25 22 23 22 20 19 17 16 14 12 11 10 10 10 10
29 18 15 16 16 17 37 33 36 37 37 35 30 26 31 29 32 31 30 27 30 27 30 40 49 52 46 37 32 29 25 24 22 20 19 18 16 14 13 11 11 10 9 10
42 30 22 19 23 27 22 31 30 37 41 34 36 30 26 24 25 36 40 32 31 27 21 25 42 50 48 42 35 31 26 25 24 21 20 18 17 15 13 12 10 10 9 10
28 36 34 21 20 18 31 31 19 18 32 27 32 32 30 26 30 33 33 42 44 39 34 29 28 46 50 43 40 34 27 26 25 22 20 19 17 15 14 12 11 10 9 10
19 31 40 40 27 30 23 17 13 21 20 14 27 29 29 32 38 33 37 31 31 44 45 40 37 43 50 49 43 33 30 28 26 23 21 19 17 16 14 13 11 10 10 10
21 11 29 36 36 31 22 21 18 13 24 11 21 7 7 11 15 20 34 32 32 34 43 43 41 44 51 47 42 37 32 30 28 24 21 20 18 17 15 13 12 11 10 11
24 20 16 10 30 27 17 17 22 31 20 19 17 13 11 9 9 11 12 26 32 35 40 42 36 44 54 51 45 37 33 31 28 24 22 20 19 18 16 14 13 12 12 11
32 26 27 24 24 21 37 26 21 32 32 27 24 22 19 15 9 10 17 16 27 37 38 40 37 41 51 52 46 38 32 30 28 25 22 21 21 19 17 15 14 13 12 11
36 31 36 38 45 31 19 26 36 36 28 26 27 27 24 25 18 16 16 20 21 36 43 42 42 43 50 53 47 42 36 33 30 26 23 23 22 20 18 17 16 14 12 10
39 47 42 59 46 33 45 31 37 42 41 30 30 30 27 26 18 13 12 15 21 29 43 44 41 45 54 54 48 43 38 35 31 26 25 24 22 20 20 18 16 13 12 10
Wind_Direction
225 222 223 220 222 222 237 224 216 215 207 204 201 208 211 207 210 212 213 215 215 212 213 220 229 237 251 258 262 266 262 250 247 253 247 247 258 260 265 271 261 269 285 291
227 229 226 229 224 225 225 221 220 205 212 198 194 198 215 214 213 214 215 216 218 218 221 228 234 244 254 260 268 270 262 250 247 246 248 251 245 257 257 269 278 287 293 294
228 237 226 229 227 225 225 225 220 212 191 192 188 195 206 216 215 216 213 214 217 224 231 237 242 249 257 264 268 264 254 245 244 248 240 249 255 259 269 274 277 281 282 283
241 230 238 235 233 226 229 224 230 224 204 209 205 232 224 218 217 218 218 218 220 230 235 237 244 252 261 265 264 256 249 243 243 245 245 248 252 258 262 263 264 269 272 275
235 240 231 232 233 228 236 225 228 226 219 208 198 213 236 220 223 224 221 218 226 231 233 235 238 246 253 257 255 250 242 236 233 231 232 237 244 249 253 256 256 258 263 270
235 251 233 240 232 232 226 222 222 221 219 222 222 215 226 214 225 217 224 225 230 232 233 232 237 244 251 248 243 238 235 233 234 236 240 241 240 237 237 241 248 248 252 266
246 246 242 236 228 227 213 207 197 210 207 225 222 216 228 228 226 231 242 236 239 234 233 234 239 247 245 241 234 231 231 235 240 242 239 233 230 230 230 233 237 249 269 286
236 238 232 229 223 220 212 208 210 215 213 230 230 220 231 227 217 231 225 234 241 236 233 232 234 237 236 230 227 228 232 237 238 232 227 225 226 227 230 236 248 260 271 281
236 244 241 225 224 214 218 218 216 228 234 240 217 228 233 223 224 233 218 227 233 231 228 226 229 228 226 224 224 227 229 229 225 222 223 224 225 226 229 234 240 249 259 270
246 258 245 240 221 224 222 226 221 233 239 236 231 230 225 223 219 214 222 224 223 232 233 229 226 220 217 218 221 223 221 219 219 219 219 219 219 222 227 234 242 250 260 275
234 243 252 233 222 220 219 228 222 226 225 234 236 236 234 235 220 228 229 232 239 241 236 227 223 218 217 216 219 217 214 216 218 217 216 217 220 222 227 235 243 252 264 277
240 238 239 236 244 229 227 224 219 218 225 237 249 247 232 230 232 240 236 235 241 240 227 223 219 220 217 217 219 214 213 215 217 216 215 218 220 223 228 234 244 254 266 283
239 230 241 244 234 235 225 223 225 222 232 241 233 241 237 218 203 235 239 234 238 233 217 217 214 217 214 214 217 215 215 216 217 218 219 220 222 225 230 237 246 257 271 286
275 243 235 236 236 229 227 227 225 224 228 237 241 247 237 235 245 252 235 226 230 233 217 215 216 216 213 214 217 217 217 218 220 221 222 223 224 226 230 237 244 257 272 289
268 261 252 252 248 248 243 233 229 228 232 230 238 241 240 235 240 242 235 230 225 231 222 217 219 215 213 214 217 216 216 218 220 221 221 221 222 225 229 235 245 259 276 293
258 267 293 272 253 246 249 241 236 233 236 237 240 245 244 239 230 228 227 208 219 224 224 221 218 216 214 215 219 218 215 217 218 219 219 219 220 223 228 235 247 261 276 290
273 270 295 272 260 253 244 235 233 239 237 237 238 240 235 228 223 221 213 214 217 228 229 228 221 217 215 214 218 219 216 218 217 218 217 216 218 222 227 235 246 260 276 296
254 253 254 273 270 240 242 239 238 241 242 239 240 240 233 230 225 226 235 243 240 233 239 235 228 220 215 213 216 215 216 220 219 218 216 216 218 221 226 234 245 261 281 298
253 237 241 245 252 259 251 236 237 237 247 242 240 242 234 231 231 232 228 226 223 238 246 247 234 221 213 211 216 220 219 222 219 217 216 216 218 221 226 234 246 262 278 294
229 228 223 229 233 242 247 242 242 237 251 242 238 233 230 233 229 232 229 226 227 223 236 246 240 221 215 212 218 217 219 221 218 215 215 216 217 221 226 234 244 258 273 285
207 213 218 224 235 247 237 220 229 211 254 257 238 237 238 229 238 247 248 242 240 230 229 228 232 221 215 212 214 215 220 218 215 214 215 215 217 221 226 231 241 254 268 283
260 235 217 228 226 238 232 238 233 226 227 225 236 276 231 234 272 252 244 244 234 234 224 223 227 218 215 210 213 215 217 215 214 214 214 214 217 222 224 230 239 250 261 270
249 237 299 263 220 226 214 204 228 233 225 219 201 213 220 250 284 255 238 238 230 224 226 221 220 215 207 208 212 212 215 215 213 214 215 214 218 219 222 228 236 245 255 265
256 268 269 281 231 235 230 207 226 235 233 233 238 239 252 246 235 254 260 245 229 218 223 223 226 214 203 206 209 210 214 216 214 215 215 216 218 218 221 226 233 241 250 260
253 264 257 264 251 240 226 228 236 234 237 236 232 239 239 239 249 266 250 248 247 223 218 219 226 218 201 205 205 209 213 213 214 215 216 218 216 217 221 225 229 236 244 256
249 252 259 255 249 267 250 225 221 235 238 232 236 233 228 221 251 236 236 243 246 234 220 219 224 211 201 203 205 209 213 214 215 216 219 218 215 218 221 223 228 234 241 251
Height
3098 3101 3099 3104 3106 3109 3110 3111 3113 3116 3114 3120 3124 3126 3128 3131 3135 3138 3141 3144 3148 3151 3154 3157 3159 3160 3162 3162 3163 3164 3165 3165 3166 3167 3167 3168 3168 3169 3170 3170 3170 3170 3170 3169
3094 3092 3099 3100 3102 3104 3106 3106 3108 3113 3112 3117 3120 3123 3123 3126 3130 3134 3136 3138 3143 3146 3148 3152 3154 3156 3157 3158 3159 3159 3159 3160 3160 3161 3162 3163 3164 3165 3166 3165 3165 3165 3164 3163
3089 3091 3091 3093 3095 3097 3100 3102 3105 3109 3110 3114 3118 3121 3119 3122 3125 3128 3131 3134 3138 3141 3143 3145 3148 3150 3152 3153 3153 3154 3154 3155 3156 3157 3157 3158 3160 3161 3161 3161 3161 3161 3160 3160
3085 3087 3085 3086 3087 3093 3093 3099 3102 3104 3106 3106 3110 3113 3113 3115 3118 3121 3124 3127 3131 3134 3136 3139 3143 3145 3146 3147 3148 3148 3149 3150 3152 3152 3153 3155 3156 3156 3157 3157 3158 3158 3157 3157
3080 3079 3080 3080 3081 3089 3087 3096 3098 3100 3102 3104 3108 3116 3106 3108 3110 3111 3115 3122 3126 3129 3131 3134 3137 3140 3142 3142 3143 3144 3145 3146 3147 3149 3150 3151 3152 3153 3154 3154 3154 3155 3154 3154
3075 3075 3074 3075 3080 3080 3087 3090 3094 3096 3098 3095 3093 3099 3096 3096 3095 3105 3111 3116 3119 3123 3125 3128 3132 3134 3136 3137 3138 3139 3140 3142 3144 3145 3147 3148 3149 3150 3150 3151 3151 3151 3151 3151
3071 3068 3070 3070 3073 3076 3079 3084 3085 3086 3083 3073 3086 3090 3086 3091 3095 3097 3104 3108 3112 3114 3117 3122 3126 3129 3130 3131 3133 3135 3136 3138 3140 3141 3143 3144 3145 3146 3147 3148 3148 3148 3147 3147
3062 3062 3063 3064 3065 3069 3070 3074 3071 3071 3069 3065 3080 3077 3071 3090 3091 3093 3098 3102 3103 3106 3111 3117 3121 3123 3125 3127 3128 3131 3132 3134 3136 3137 3139 3140 3142 3143 3143 3144 3144 3144 3145 3145
3058 3057 3057 3058 3061 3066 3065 3066 3067 3067 3069 3067 3068 3075 3078 3080 3085 3087 3090 3089 3092 3098 3105 3111 3113 3117 3119 3121 3124 3126 3128 3130 3132 3133 3135 3137 3138 3140 3140 3141 3142 3143 3143 3142
3054 3053 3053 3055 3055 3056 3058 3060 3066 3065 3062 3057 3056 3056 3061 3070 3075 3079 3080 3082 3086 3092 3097 3103 3107 3111 3114 3117 3119 3122 3124 3126 3129 3130 3132 3134 3136 3137 3138 3139 3139 3139 3139 3139
3049 3050 3049 3050 3046 3047 3051 3053 3056 3058 3058 3053 3050 3044 3058 3063 3068 3070 3072 3076 3082 3085 3089 3094 3100 3106 3109 3112 3115 3117 3120 3123 3124 3127 3129 3130 3132 3134 3135 3135 3136 3136 3135 3135
3042 3042 3040 3039 3042 3042 3043 3044 3047 3048 3048 3048 3046 3043 3049 3056 3060 3061 3064 3068 3074 3077 3083 3087 3093 3099 3102 3106 3110 3113 3116 3118 3121 3123 3125 3127 3129 3130 3131 3132 3132 3132 3132 3131
3035 3034 3035 3035 3038 3035 3033 3036 3039 3043 3046 3041 3042 3033 3047 3051 3054 3056 3058 3063 3067 3070 3074 3079 3084 3090 3096 3101 3104 3107 3110 3113 3116 3119 3121 3122 3124 3126 3126 3127 3128 3128 3127 3127
3031 3029 3028 3024 3023 3029 3030 3031 3033 3036 3038 3034 3032 3038 3043 3046 3048 3048 3050 3053 3058 3062 3067 3072 3077 3082 3090 3095 3099 3102 3105 3108 3111 3114 3115 3117 3119 3120 3121 3123 3124 3124 3123 3123
3027 3023 3024 3022 3022 3022 3022 3024 3027 3028 3025 3029 3027 3031 3038 3041 3044 3045 3046 3045 3050 3055 3059 3064 3069 3076 3083 3088 3093 3096 3100 3103 3106 3108 3111 3113 3114 3116 3118 3119 3119 3119 3119 3118
3023 3019 3017 3012 3016 3017 3017 3017 3019 3018 3019 3023 3024 3027 3033 3037 3037 3037 3039 3039 3042 3048 3052 3057 3063 3070 3076 3082 3088 3092 3095 3098 3101 3103 3105 3107 3109 3111 3113 3114 3114 3115 3115 3115
3016 3016 3016 3007 3010 3009 3008 3003 3007 3011 3013 3014 3016 3020 3029 3030 3031 3032 3034 3036 3041 3044 3047 3049 3056 3063 3070 3078 3084 3087 3090 3092 3095 3097 3100 3102 3104 3106 3108 3109 3110 3111 3111 3109
3006 3011 3013 3007 3007 2999 2986 3001 3002 3003 3005 3009 3011 3016 3020 3023 3026 3030 3031 3033 3036 3039 3041 3045 3050 3057 3067 3074 3077 3079 3083 3086 3089 3092 3095 3097 3099 3101 3103 3104 3106 3106 3105 3104
2995 3003 3006 3003 2999 2990 2987 2990 2993 2995 2993 3003 3005 3009 3012 3016 3020 3020 3024 3027 3031 3033 3036 3038 3043 3052 3059 3066 3070 3074 3078 3081 3084 3087 3090 3092 3095 3096 3098 3099 3100 3101 3100 3100
2983 2989 2996 2995 2993 2984 2976 2988 2988 2991 2985 2993 2996 2999 3004 3009 3009 3011 3015 3018 3022 3025 3028 3032 3037 3044 3053 3061 3063 3068 3073 3076 3079 3082 3085 3087 3089 3091 3092 3094 3095 3096 3096 3095
2976 2979 2979 2979 2983 2972 2976 2979 2982 2985 2986 2984 2989 2990 2993 2996 2998 3007 3009 3013 3016 3019 3021 3026 3029 3035 3043 3049 3056 3062 3067 3071 3074 3077 3079 3081 3084 3086 3087 3089 3090 3091 3091 3090
2975 2971 2969 2971 2972 2968 2973 2977 2979 2973 2976 2976 2979 2985 2987 2991 2994 2993 2996 3000 3005 3008 3011 3015 3020 3025 3034 3045 3050 3055 3060 3064 3067 3071 3073 3075 3078 3081 3082 3084 3085 3086 3087 3087
2968 2966 2960 2959 2956 2962 2965 2964 2965 2962 2967 2968 2971 2975 2978 2982 2986 2987 2988 2990 2994 2999 3002 3008 3012 3017 3026 3035 3042 3050 3053 3057 3061 3064 3067 3069 3073 3075 3077 3079 3080 3082 3082 3082
2958 2957 2952 2950 2943 2945 2946 2952 2955 2952 2957 2961 2963 2967 2971 2974 2976 2978 2981 2982 2983 2988 2993 3000 3005 3009 3018 3028 3035 3043 3046 3051 3055 3057 3061 3064 3067 3070 3072 3074 3075 3077 3077 3077
2953 2951 2940 2934 2928 2933 2937 2944 2941 2944 2947 2952 2956 2960 2964 2967 2969 2970 2971 2974 2976 2978 2982 2989 2995 3002 3010 3019 3026 3033 3039 3044 3047 3051 3054 3058 3062 3064 3066 3069 3071 3072 3072 3072
2940 2932 2938 2915 2927 2930 2921 2927 2931 2932 2937 2944 2946 2951 2956 2960 2962 2962 2964 2965 2969 2970 2973 2978 2987 2995 3002 3010 3019 3025 3031 3036 3041 3045 3049 3053 3055 3058 3061 3064 3065 3067 3067 3068